Tracking 19854 objects as of 23-Sep-2019
HD Live streaming from Space Station
objects crossing your sky now

SL-14 DEB

Track SL-14 DEB now!
10-day predictions


NORAD ID: 35525
Int'l Code: 1987-068CU
Perigee: 947.2 km
Apogee: 976.1 km
Inclination: 82.5 °
Period: 104.1 minutes
Semi major axis: 7332 km
RCS: 0.0106 m2 (small)
Launch date: August 18, 1987
Source: Commonwealth of Independent States (former USSR) (CIS)
Launch site: PLESETSK MISSILE AND SPACE COMPLEX (PKMTR)

Note: This is SATELLITE DEBRIS
aabbcc
Your satellite tracking list
Your tracking list is empty




NASA's NSSDC Master Catalog

Two Line Element Set (TLE):
1 35525U 87068CU  19265.86032499  .00000064  00000-0  45795-4 0  9997
2 35525  82.5427 107.3414 0019704 292.1203 127.3087 13.82646194825333
Source of the keplerian elements: AFSPC